QPF
0.00 0.06 0.02 0.01 0.07 0.06 0.04 0.07 0.05 0.02 0.00 0.00 0.00 0.00 0.00 0.00 0.01 0.04 0.00 0.02 0.00 0.00 0.00 0.00 0.01 0.01 0.00 0.00 0.00 0.00 0.01 0.00 0.00 0.00 0.00 0.00 0.00 0.00 0.00 0.00 0.00 0.00 0.01 0.01 0.02 0.02 0.06 0.06 0.02
0.00 0.01 0.00 0.02 0.03 0.03 0.03 0.02 0.06 0.00 0.00 0.00 0.00 0.01 0.00 0.00 0.00 0.00 0.00 0.02 0.00 0.00 0.00 0.00 0.00 0.00 0.00 0.00 0.00 0.01 0.00 0.00 0.00 0.00 0.00 0.00 0.00 0.00 0.00 0.00 0.00 0.03 0.02 0.08 0.11 0.10 0.04 0.02 0.01
0.01 0.00 0.03 0.08 0.00 0.05 0.04 0.02 0.03 0.02 0.01 0.00 0.00 0.00 0.00 0.00 0.00 0.00 0.00 0.00 0.00 0.00 0.00 0.00 0.00 0.00 0.00 0.00 0.00 0.00 0.00 0.00 0.00 0.00 0.00 0.00 0.00 0.00 0.00 0.00 0.00 0.01 0.03 0.04 0.05 0.02 0.00 0.01 0.00
0.00 0.01 0.04 0.07 0.01 0.00 0.01 0.01 0.05 0.02 0.01 0.00 0.00 0.00 0.01 0.00 0.00 0.01 0.00 0.00 0.00 0.00 0.00 0.00 0.00 0.00 0.00 0.00 0.00 0.00 0.00 0.00 0.00 0.00 0.00 0.00 0.00 0.00 0.00 0.00 0.00 0.00 0.01 0.03 0.00 0.00 0.00 0.00 0.00
0.00 0.01 0.06 0.01 0.00 0.00 0.00 0.01 0.05 0.00 0.00 0.00 0.00 0.01 0.00 0.00 0.00 0.00 0.00 0.00 0.00 0.00 0.00 0.00 0.00 0.02 0.00 0.00 0.00 0.00 0.00 0.00 0.00 0.00 0.00 0.00 0.00 0.00 0.00 0.00 0.00 0.00 0.00 0.00 0.00 0.00 0.00 0.00 0.00
0.00 0.00 0.00 0.01 0.00 0.00 0.00 0.01 0.02 0.00 0.00 0.00 0.00 0.00 0.00 0.00 0.00 0.00 0.00 0.00 0.00 0.00 0.00 0.00 0.00 0.00 0.00 0.00 0.00 0.00 0.00 0.00 0.00 0.00 0.00 0.00 0.00 0.00 0.00 0.00 0.00 0.00 0.00 0.00 0.00 0.00 0.00 0.00 0.00
0.00 0.00 0.00 0.00 0.00 0.00 0.00 0.01 0.00 0.00 0.01 0.01 0.05 0.00 0.00 0.00 0.00 0.00 0.00 0.00 0.00 0.00 0.00 0.00 0.00 0.00 0.00 0.00 0.00 0.00 0.00 0.00 0.00 0.00 0.00 0.00 0.00 0.00 0.00 0.00 0.00 0.00 0.00 0.00 0.00 0.00 0.00 0.00 0.00
0.00 0.00 0.00 0.00 0.03 0.02 0.00 0.00 0.00 0.00 0.00 0.00 0.03 0.00 0.00 0.00 0.00 0.00 0.01 0.01 0.02 0.01 0.00 0.00 0.00 0.00 0.00 0.00 0.00 0.00 0.00 0.00 0.00 0.00 0.00 0.00 0.00 0.00 0.00 0.00 0.00 0.00 0.00 0.00 0.00 0.00 0.00 0.00 0.00
0.00 0.00 0.01 0.02 0.02 0.00 0.00 0.00 0.00 0.02 0.01 0.00 0.00 0.01 0.00 0.00 0.00 0.00 0.00 0.00 0.00 0.00 0.01 0.00 0.00 0.00 0.00 0.01 0.00 0.00 0.00 0.00 0.00 0.00 0.00 0.00 0.00 0.00 0.00 0.00 0.00 0.00 0.00 0.00 0.00 0.00 0.01 0.00 0.00
0.00 0.00 0.00 0.01 0.01 0.00 0.00 0.00 0.00 0.02 0.05 0.05 0.03 0.04 0.00 0.00 0.00 0.00 0.00 0.01 0.03 0.04 0.04 0.00 0.01 0.00 0.00 0.03 0.00 0.00 0.00 0.00 0.00 0.00 0.00 0.00 0.00 0.00 0.00 0.01 0.00 0.00 0.00 0.00 0.00 0.05 0.04 0.02 0.04
0.00 0.00 0.00 0.00 0.00 0.00 0.00 0.00 0.01 0.03 0.06 0.02 0.03 0.05 0.00 0.00 0.00 0.00 0.00 0.00 0.01 0.00 0.00 0.09 0.12 0.02 0.00 0.00 0.00 0.00 0.00 0.00 0.00 0.00 0.00 0.00 0.00 0.00 0.00 0.00 0.00 0.00 0.00 0.03 0.02 0.06 0.01 0.00 0.00
0.00 0.00 0.00 0.00 0.00 0.00 0.00 0.00 0.00 0.02 0.01 0.01 0.01 0.01 0.00 0.00 0.00 0.00 0.00 0.00 0.00 0.00 0.00 0.06 0.03 0.05 0.00 0.00 0.00 0.00 0.00 0.00 0.00 0.00 0.00 0.00 0.00 0.00 0.02 0.09 0.06 0.03 0.03 0.15 0.05 0.03 0.00 0.00 0.01
0.00 0.00 0.00 0.00 0.00 0.00 0.00 0.00 0.00 0.00 0.00 0.00 0.00 0.00 0.00 0.00 0.00 0.00 0.00 0.00 0.00 0.00 0.00 0.00 0.01 0.01 0.01 0.00 0.00 0.00 0.00 0.00 0.00 0.00 0.00 0.00 0.01 0.01 0.03 0.10 0.06 0.07 0.02 0.06 0.02 0.01 0.01 0.00 0.03
0.00 0.00 0.00 0.00 0.00 0.00 0.00 0.00 0.00 0.00 0.00 0.00 0.00 0.00 0.00 0.00 0.00 0.00 0.00 0.00 0.00 0.00 0.00 0.00 0.05 0.00 0.00 0.00 0.00 0.00 0.00 0.00 0.00 0.00 0.00 0.00 0.00 0.01 0.03 0.06 0.03 0.01 0.06 0.03 0.02 0.12 0.07 0.03 0.03
0.00 0.00 0.00 0.00 0.00 0.00 0.00 0.00 0.00 0.02 0.01 0.00 0.00 0.00 0.00 0.00 0.00 0.00 0.00 0.00 0.00 0.00 0.00 0.00 0.06 0.01 0.00 0.00 0.00 0.00 0.00 0.00 0.00 0.00 0.00 0.00 0.00 0.03 0.05 0.12 0.04 0.05 0.08 0.12 0.05 0.03 0.00 0.02 0.01
0.00 0.00 0.00 0.00 0.00 0.00 0.01 0.01 0.01 0.05 0.01 0.00 0.00 0.00 0.00 0.00 0.00 0.00 0.00 0.00 0.00 0.00 0.00 0.00 0.06 0.01 0.00 0.00 0.00 0.01 0.00 0.00 0.00 0.01 0.00 0.00 0.00 0.00 0.05 0.09 0.04 0.04 0.10 0.15 0.13 0.06 0.03 0.03 0.05
0.00 0.00 0.00 0.00 0.00 0.00 0.01 0.00 0.00 0.02 0.01 0.00 0.00 0.00 0.00 0.00 0.00 0.00 0.00 0.00 0.00 0.00 0.00 0.00 0.03 0.03 0.00 0.00 0.00 0.00 0.00 0.00 0.00 0.00 0.00 0.00 0.00 0.00 0.00 0.00 0.00 0.05 0.08 0.05 0.12 0.09 0.08 0.10 0.09
0.00 0.00 0.00 0.00 0.00 0.00 0.00 0.00 0.02 0.03 0.01 0.00 0.00 0.00 0.00 0.00 0.00 0.00 0.00 0.00 0.00 0.00 0.00 0.00 0.00 0.00 0.00 0.00 0.00 0.00 0.00 0.00 0.00 0.00 0.00 0.00 0.00 0.00 0.00 0.01 0.03 0.03 0.09 0.11 0.09 0.04 0.04 0.10 0.13
0.00 0.00 0.00 0.00 0.00 0.00 0.01 0.01 0.04 0.12 0.03 0.02 0.00 0.00 0.00 0.00 0.00 0.00 0.00 0.00 0.00 0.00 0.00 0.00 0.00 0.00 0.00 0.00 0.00 0.00 0.00 0.00 0.00 0.00 0.00 0.00 0.00 0.01 0.02 0.02 0.10 0.03 0.02 0.11 0.08 0.04 0.06 0.02 0.07
0.00 0.00 0.00 0.00 0.00 0.00 0.01 0.04 0.03 0.07 0.05 0.03 0.00 0.00 0.00 0.01 0.00 0.00 0.00 0.00 0.00 0.00 0.00 0.00 0.00 0.00 0.00 0.00 0.00 0.00 0.00 0.00 0.00 0.00 0.00 0.00 0.00 0.00 0.00 0.00 0.02 0.04 0.03 0.03 0.03 0.03 0.04 0.07 0.19
0.00 0.00 0.00 0.00 0.01 0.03 0.01 0.00 0.02 0.03 0.11 0.09 0.09 0.02 0.00 0.00 0.00 0.00 0.00 0.00 0.00 0.00 0.00 0.00 0.00 0.00 0.00 0.00 0.00 0.00 0.00 0.00 0.00 0.00 0.00 0.00 0.00 0.00 0.00 0.00 0.00 0.00 0.00 0.00 0.03 0.05 0.05 0.08 0.04
0.00 0.00 0.00 0.00 0.00 0.00 0.00 0.00 0.00 0.00 0.01 0.14 0.10 0.07 0.02 0.00 0.00 0.00 0.00 0.00 0.00 0.00 0.00 0.00 0.00 0.00 0.01 0.01 0.00 0.00 0.00 0.00 0.00 0.00 0.00 0.03 0.00 0.00 0.00 0.00 0.01 0.00 0.01 0.00 0.01 0.04 0.11 0.12 0.10
0.00 0.00 0.00 0.00 0.00 0.00 0.01 0.01 0.00 0.00 0.00 0.02 0.03 0.01 0.02 0.03 0.00 0.00 0.00 0.01 0.00 0.00 0.00 0.00 0.00 0.00 0.00 0.01 0.02 0.00 0.00 0.00 0.00 0.00 0.00 0.01 0.01 0.01 0.04 0.05 0.02 0.00 0.01 0.01 0.04 0.05 0.08 0.10 0.13
0.00 0.00 0.00 0.00 0.00 0.00 0.01 0.00 0.00 0.00 0.00 0.00 0.00 0.01 0.00 0.01 0.00 0.00 0.01 0.00 0.00 0.00 0.00 0.00 0.00 0.00 0.00 0.00 0.01 0.01 0.01 0.01 0.03 0.02 0.01 0.02 0.01 0.00 0.01 0.02 0.01 0.01 0.01 0.01 0.01 0.01 0.05 0.08 0.16
0.00 0.00 0.00 0.00 0.00 0.00 0.00 0.00 0.00 0.00 0.00 0.00 0.00 0.01 0.00 0.01 0.00 0.00 0.00 0.00 0.00 0.00 0.00 0.00 0.00 0.00 0.00 0.00 0.00 0.01 0.01 0.02 0.01 0.00 0.00 0.00 0.00 0.00 0.00 0.00 0.01 0.04 0.02 0.00 0.01 0.00 0.01 0.02 0.06
0.00 0.00 0.00 0.00 0.00 0.00 0.00 0.00 0.00 0.00 0.00 0.00 0.00 0.00 0.00 0.01 0.01 0.00 0.00 0.00 0.00 0.00 0.00 0.00 0.00 0.00 0.00 0.00 0.00 0.00 0.01 0.01 0.00 0.00 0.01 0.00 0.01 0.00 0.00 0.03 0.08 0.03 0.01 0.00 0.00 0.00 0.00 0.02 0.03
0.00 0.00 0.00 0.00 0.00 0.00 0.00 0.00 0.00 0.00 0.01 0.00 0.00 0.00 0.00 0.02 0.01 0.00 0.00 0.00 0.00 0.01 0.00 0.00 0.00 0.00 0.00 0.00 0.01 0.00 0.00 0.00 0.00 0.00 0.00 0.00 0.01 0.01 0.01 0.02 0.03 0.01 0.01 0.02 0.00 0.00 0.00 0.00 0.00
0.00 0.00 0.00 0.00 0.00 0.00 0.00 0.00 0.00 0.00 0.00 0.00 0.00 0.00 0.00 0.00 0.00 0.00 0.00 0.00 0.00 0.00 0.00 0.00 0.00 0.00 0.00 0.00 0.00 0.00 0.00 0.00 0.00 0.00 0.00 0.00 0.00 0.02 0.03 0.01 0.03 0.02 0.00 0.00 0.00 0.00 0.00 0.00 0.00
0.00 0.00 0.00 0.00 0.00 0.00 0.00 0.00 0.00 0.00 0.00 0.00 0.00 0.00 0.00 0.00 0.00 0.00 0.00 0.00 0.00 0.00 0.00 0.00 0.00 0.00 0.00 0.00 0.00 0.00 0.00 0.00 0.00 0.00 0.00 0.00 0.00 0.00 0.01 0.00 0.00 0.00 0.00 0.00 0.00 0.00 0.00 0.00 0.00
0.00 0.00 0.00 0.00 0.00 0.00 0.00 0.00 0.00 0.00 0.00 0.01 0.01 0.00 0.00 0.00 0.00 0.00 0.00 0.00 0.00 0.00 0.00 0.00 0.00 0.00 0.00 0.00 0.00 0.00 0.00 0.00 0.00 0.00 0.00 0.00 0.00 0.00 0.00 0.00 0.00 0.00 0.00 0.00 0.00 0.00 0.00 0.02 0.00
MSLP
1008.87 1009.11 1009.33 1009.73 1010.35 1010.50 1011.37 1012.09 1011.56 1009.09 1006.76 1006.24 1006.16 1006.78 1007.73 1008.33 1009.14 1010.82 1011.28 1012.20 1013.17 1013.90 1014.22 1014.46 1014.66 1014.96 1015.19 1015.31 1015.45 1015.56 1015.72 1016.11 1016.20 1016.30 1016.43 1016.43 1016.55 1016.88 1017.15 1017.32 1017.35 1017.43 1017.56 1017.69 1017.77 1017.88 1017.92 1018.19 1018.20
1008.36 1008.51 1008.99 1009.07 1009.92 1011.03 1011.95 1013.02 1011.40 1009.19 1007.03 1006.38 1006.74 1006.95 1007.88 1009.14 1009.20 1010.49 1011.67 1012.43 1012.75 1013.55 1014.00 1014.61 1014.80 1014.93 1015.24 1015.38 1015.62 1015.82 1015.85 1015.95 1016.21 1016.43 1016.52 1016.60 1016.76 1016.97 1017.28 1017.38 1017.49 1017.57 1017.56 1017.71 1017.93 1017.90 1018.19 1018.33 1018.46
1008.91 1008.39 1008.83 1009.30 1009.74 1010.57 1011.65 1012.47 1011.60 1009.61 1008.32 1006.24 1006.74 1006.97 1007.99 1009.40 1009.77 1010.56 1011.73 1012.22 1012.64 1013.56 1013.99 1014.46 1014.63 1014.92 1015.23 1015.52 1015.73 1015.91 1016.00 1016.10 1016.34 1016.53 1016.69 1016.82 1016.89 1017.01 1017.27 1017.38 1017.54 1017.57 1017.64 1017.83 1017.88 1017.97 1018.23 1018.38 1018.51
1008.31 1008.22 1009.02 1009.59 1009.63 1010.01 1010.83 1011.41 1010.47 1009.54 1007.98 1006.51 1006.71 1007.84 1008.75 1008.88 1009.72 1010.68 1011.59 1012.21 1012.80 1013.74 1014.17 1014.47 1014.55 1014.96 1015.31 1015.54 1015.71 1015.97 1016.18 1016.30 1016.42 1016.66 1016.86 1016.86 1016.93 1016.98 1017.21 1017.42 1017.55 1017.54 1017.66 1017.91 1017.87 1018.06 1018.18 1018.36 1018.45
1008.63 1009.45 1009.72 1009.83 1009.31 1009.33 1009.56 1009.64 1009.39 1008.88 1008.17 1007.95 1007.04 1008.43 1009.10 1009.62 1009.90 1010.52 1011.50 1012.29 1012.94 1013.91 1014.40 1014.46 1014.56 1014.91 1015.29 1015.57 1015.85 1016.06 1016.29 1016.33 1016.46 1016.74 1016.87 1016.92 1017.01 1017.04 1017.23 1017.54 1017.60 1017.60 1017.73 1017.78 1017.88 1017.96 1018.12 1018.25 1018.49
1008.48 1008.89 1009.96 1010.07 1009.34 1008.41 1008.09 1008.04 1008.12 1007.65 1007.89 1008.09 1007.96 1008.62 1009.49 1009.96 1010.31 1010.98 1011.44 1012.37 1013.02 1013.87 1014.40 1014.49 1014.68 1015.07 1015.29 1015.69 1015.96 1016.08 1016.28 1016.27 1016.48 1016.69 1016.82 1016.98 1017.09 1017.18 1017.46 1017.67 1017.55 1017.57 1017.64 1017.83 1017.95 1018.15 1018.15 1018.21 1018.53
1007.79 1008.71 1010.06 1010.44 1009.60 1008.35 1007.75 1007.00 1007.48 1008.05 1008.40 1008.75 1009.16 1009.33 1009.89 1010.00 1010.19 1010.79 1011.71 1012.40 1013.18 1013.62 1014.41 1014.56 1014.69 1015.06 1015.36 1015.76 1015.96 1016.12 1016.15 1016.28 1016.46 1016.60 1016.83 1017.02 1017.04 1017.23 1017.51 1017.69 1017.66 1017.70 1017.66 1017.88 1018.00 1018.23 1018.24 1018.25 1018.57
1006.43 1008.39 1010.05 1011.34 1010.51 1008.80 1007.45 1007.03 1007.26 1007.74 1008.48 1008.49 1008.75 1008.99 1009.87 1009.86 1010.25 1011.12 1011.99 1012.76 1013.32 1013.94 1014.46 1014.66 1014.83 1015.06 1015.44 1015.77 1015.93 1016.04 1016.15 1016.38 1016.49 1016.57 1016.74 1017.04 1017.10 1017.23 1017.44 1017.60 1017.66 1017.68 1017.55 1017.74 1017.90 1018.17 1018.33 1018.35 1018.66
1005.70 1008.31 1009.73 1010.04 1010.00 1008.29 1007.43 1007.38 1007.89 1008.68 1008.51 1008.73 1009.03 1008.37 1009.08 1009.80 1010.25 1011.20 1012.07 1012.66 1013.42 1013.87 1014.23 1014.51 1014.65 1014.96 1015.38 1015.70 1015.80 1016.00 1016.24 1016.46 1016.55 1016.66 1016.92 1017.03 1017.24 1017.28 1017.43 1017.50 1017.55 1017.53 1017.40 1017.55 1017.61 1017.89 1018.16 1018.28 1018.44
1005.86 1007.43 1008.20 1008.43 1008.39 1007.69 1007.43 1007.66 1008.20 1008.98 1009.46 1009.74 1009.10 1008.94 1009.23 1009.77 1010.37 1011.25 1012.22 1012.81 1013.44 1013.81 1014.03 1014.37 1014.68 1014.86 1015.19 1015.46 1015.80 1016.08 1016.30 1016.58 1016.65 1016.89 1017.04 1017.07 1017.01 1017.12 1017.24 1017.27 1017.37 1017.36 1017.20 1017.08 1017.09 1017.38 1017.80 1018.16 1018.49
1005.22 1006.15 1006.61 1007.30 1006.94 1006.85 1007.00 1007.71 1008.06 1009.25 1010.47 1010.62 1010.37 1010.10 1009.73 1009.88 1010.38 1010.97 1011.86 1012.55 1013.00 1013.30 1013.73 1014.75 1014.87 1015.10 1015.23 1015.44 1015.80 1016.15 1016.41 1016.58 1016.54 1016.75 1016.86 1016.88 1016.74 1016.87 1017.00 1017.15 1017.02 1017.23 1017.14 1017.06 1016.86 1017.03 1017.43 1018.14 1018.48
1005.08 1005.29 1005.63 1006.15 1006.45 1006.64 1007.18 1007.65 1008.27 1008.90 1009.19 1009.51 1009.66 1009.39 1009.44 1010.08 1010.49 1011.20 1011.84 1012.33 1012.90 1013.13 1013.76 1014.58 1014.80 1015.08 1015.13 1015.42 1015.77 1016.05 1016.41 1016.58 1016.46 1016.47 1016.57 1016.81 1016.73 1016.74 1016.60 1017.10 1017.07 1017.07 1017.03 1017.22 1017.12 1017.15 1017.18 1017.37 1017.95
1004.54 1004.86 1004.84 1005.29 1005.83 1006.16 1006.80 1007.64 1008.30 1008.69 1008.87 1008.84 1009.09 1009.43 1009.72 1009.88 1010.44 1010.86 1011.41 1012.02 1012.41 1012.98 1013.73 1014.09 1014.57 1014.88 1014.99 1015.33 1015.68 1016.03 1016.18 1016.28 1016.18 1016.23 1016.44 1016.56 1016.34 1016.41 1016.60 1016.86 1016.85 1017.09 1016.88 1016.80 1016.74 1017.01 1017.27 1017.29 1017.42
1004.31 1004.47 1004.57 1004.83 1005.49 1005.89 1006.53 1007.50 1007.93 1008.52 1008.62 1008.65 1008.89 1008.89 1009.11 1009.26 1009.78 1010.44 1010.99 1011.90 1012.56 1012.93 1013.49 1014.00 1014.33 1014.64 1014.81 1015.50 1015.64 1015.94 1016.04 1016.11 1016.15 1016.01 1016.17 1016.16 1016.27 1016.23 1016.71 1016.69 1016.73 1016.66 1016.69 1016.74 1016.81 1017.17 1017.09 1017.44 1017.64
1004.23 1004.61 1004.79 1004.91 1005.16 1005.56 1006.47 1007.64 1008.03 1008.10 1008.14 1008.18 1007.94 1007.88 1008.07 1008.83 1009.61 1010.35 1010.78 1011.29 1012.09 1012.84 1013.15 1013.67 1014.02 1014.48 1015.14 1015.55 1015.44 1015.71 1015.80 1015.74 1015.90 1015.69 1015.87 1015.84 1016.13 1016.42 1016.70 1016.63 1016.77 1016.60 1016.98 1017.04 1016.78 1017.06 1016.82 1016.90 1017.06
1004.52 1004.67 1005.09 1005.00 1005.09 1005.36 1006.27 1007.54 1008.20 1007.96 1008.32 1007.93 1007.63 1007.16 1007.85 1008.57 1009.05 1009.87 1010.51 1010.96 1011.70 1012.51 1012.97 1013.42 1013.87 1014.56 1015.09 1015.28 1015.31 1015.56 1015.52 1015.64 1015.70 1015.52 1015.89 1015.62 1015.92 1016.68 1016.60 1016.53 1016.53 1016.57 1017.01 1017.40 1017.26 1017.52 1017.30 1017.23 1017.28
1004.85 1004.80 1004.95 1004.70 1004.96 1005.36 1006.31 1007.43 1007.91 1007.81 1008.16 1008.02 1007.22 1007.11 1007.81 1008.40 1009.14 1009.47 1010.09 1010.81 1011.25 1011.91 1012.59 1013.29 1013.89 1014.37 1014.94 1015.07 1015.12 1015.34 1015.25 1015.33 1015.60 1015.74 1015.97 1015.80 1015.97 1016.51 1016.45 1016.44 1016.61 1016.98 1017.25 1017.37 1017.13 1017.69 1017.70 1017.46 1017.50
1004.63 1004.57 1004.51 1004.39 1004.71 1004.92 1005.92 1006.84 1007.71 1008.02 1008.25 1008.03 1007.58 1007.35 1007.67 1008.14 1008.40 1008.88 1009.54 1010.30 1011.02 1011.66 1012.35 1012.92 1013.64 1014.13 1014.57 1015.04 1015.23 1015.40 1015.45 1015.39 1015.52 1015.86 1015.69 1015.62 1015.84 1016.33 1016.61 1016.69 1016.79 1017.20 1017.76 1018.01 1017.46 1017.20 1017.20 1017.10 1017.30
1004.01 1004.17 1004.24 1004.25 1004.33 1005.08 1006.13 1007.46 1009.00 1009.65 1009.48 1008.71 1007.94 1007.69 1007.56 1007.98 1008.21 1008.68 1009.23 1010.13 1010.82 1011.56 1012.27 1012.84 1013.44 1013.89 1014.42 1014.96 1015.34 1015.59 1015.74 1015.51 1015.61 1015.55 1015.33 1015.37 1015.43 1015.56 1016.35 1016.76 1016.84 1017.14 1017.60 1017.93 1017.44 1017.13 1016.86 1017.12 1017.53
1003.54 1003.75 1004.11 1004.22 1003.74 1004.93 1006.18 1007.77 1008.59 1007.96 1009.60 1010.06 1009.30 1007.67 1007.36 1007.08 1007.86 1008.46 1008.99 1009.71 1010.42 1011.13 1011.97 1012.68 1013.17 1013.67 1014.18 1014.54 1014.87 1015.24 1015.36 1015.38 1015.23 1014.88 1015.19 1015.18 1014.98 1015.19 1015.77 1016.49 1016.92 1017.06 1016.97 1017.23 1017.28 1017.06 1017.07 1017.61 1018.09
1002.94 1003.25 1003.54 1003.92 1004.22 1005.02 1006.29 1007.88 1008.45 1009.11 1008.93 1009.10 1008.19 1007.85 1006.84 1006.65 1007.18 1007.66 1008.40 1009.24 1010.07 1010.83 1011.75 1012.32 1012.81 1013.42 1013.82 1014.24 1014.68 1015.03 1015.19 1015.35 1015.26 1015.27 1015.17 1015.24 1015.32 1015.10 1015.56 1015.71 1016.13 1016.37 1016.47 1016.84 1017.14 1017.17 1017.14 1017.67 1017.95
1002.74 1002.61 1003.09 1003.93 1005.10 1006.85 1007.81 1008.12 1008.50 1008.98 1009.17 1009.21 1007.08 1007.46 1006.11 1005.63 1006.23 1006.80 1007.66 1008.61 1009.45 1010.33 1011.22 1011.87 1012.39 1013.10 1013.47 1013.92 1014.50 1014.90 1015.14 1015.37 1015.15 1014.98 1015.13 1015.13 1015.41 1015.69 1015.46 1015.80 1016.06 1016.11 1016.30 1016.50 1016.61 1016.97 1017.15 1017.43 1017.81
1002.49 1002.47 1003.63 1004.95 1006.73 1007.95 1008.32 1008.47 1008.02 1008.20 1008.47 1007.86 1006.38 1006.23 1005.07 1005.19 1005.26 1005.99 1006.57 1007.72 1008.75 1009.72 1010.86 1011.46 1012.06 1012.70 1013.10 1013.52 1014.09 1014.57 1014.82 1014.90 1014.72 1014.84 1015.21 1015.43 1015.70 1015.58 1015.68 1015.80 1015.95 1016.21 1016.21 1016.30 1016.27 1016.59 1017.00 1017.17 1017.91
1002.00 1002.84 1004.36 1006.50 1007.73 1008.23 1007.58 1008.60 1007.22 1007.32 1006.51 1005.57 1003.64 1003.99 1004.40 1004.63 1004.66 1005.42 1005.96 1007.26 1008.33 1009.37 1010.44 1011.23 1011.79 1012.14 1012.87 1013.21 1013.67 1014.14 1014.40 1014.67 1014.89 1015.06 1015.28 1015.65 1015.67 1015.61 1015.44 1015.43 1015.64 1015.78 1016.09 1016.07 1016.23 1016.32 1016.59 1017.05 1017.20
1002.00 1003.20 1005.53 1007.92 1008.76 1008.49 1007.21 1007.49 1005.50 1004.94 1004.15 1004.07 1003.29 1002.99 1003.12 1003.74 1004.02 1004.84 1005.86 1006.82 1008.03 1008.97 1009.97 1010.80 1011.43 1012.11 1012.55 1012.92 1013.33 1013.75 1014.06 1014.42 1014.80 1014.95 1015.07 1015.47 1015.67 1015.50 1015.15 1015.15 1015.42 1015.78 1015.77 1015.74 1015.90 1016.30 1016.36 1016.61 1016.72
1002.05 1003.08 1004.84 1006.79 1007.91 1007.25 1006.51 1006.32 1004.37 1003.08 1003.27 1003.29 1002.85 1001.57 1002.07 1002.97 1003.40 1004.37 1005.26 1006.10 1007.15 1008.36 1009.52 1010.22 1011.08 1011.74 1012.30 1012.70 1013.01 1013.37 1013.68 1014.03 1014.29 1014.56 1014.75 1014.99 1015.34 1015.19 1014.83 1014.98 1015.02 1015.30 1015.60 1015.57 1015.54 1016.14 1016.13 1016.36 1016.34
1001.74 1002.44 1002.90 1004.57 1004.75 1005.81 1005.99 1005.22 1004.59 1004.27 1004.35 1002.29 1001.52 1001.11 1001.48 1002.50 1003.09 1004.14 1004.99 1005.92 1006.79 1007.96 1008.93 1009.60 1010.62 1011.33 1011.88 1012.25 1012.71 1013.12 1013.41 1013.75 1014.01 1014.17 1014.38 1014.63 1014.76 1014.65 1014.72 1014.50 1014.52 1015.07 1015.30 1015.32 1015.51 1015.71 1015.89 1016.06 1016.11
1001.07 1001.54 1002.49 1003.82 1004.95 1005.30 1005.32 1005.37 1005.24 1004.51 1003.35 1002.32 1001.73 1001.74 1001.72 1002.34 1003.35 1004.25 1005.03 1005.84 1006.58 1007.22 1008.30 1009.26 1010.06 1010.73 1011.30 1011.77 1012.28 1012.76 1013.16 1013.55 1013.81 1014.06 1014.25 1014.28 1014.27 1014.43 1014.73 1014.64 1014.70 1014.87 1014.99 1015.18 1015.19 1015.44 1015.65 1015.79 1015.86
1000.87 1001.55 1002.27 1003.31 1004.32 1004.72 1004.51 1003.92 1002.27 1002.73 1002.34 1002.30 1002.36 1002.33 1002.39 1002.60 1003.29 1004.12 1004.99 1005.80 1006.43 1007.07 1007.90 1008.83 1009.65 1010.29 1010.89 1011.27 1011.78 1012.34 1012.75 1013.01 1013.39 1013.70 1013.93 1014.05 1014.07 1014.24 1014.52 1014.87 1014.91 1014.75 1014.59 1014.67 1014.98 1015.22 1015.36 1015.58 1015.63
1000.15 1001.21 1002.32 1003.73 1004.42 1004.40 1004.18 1003.06 1001.80 1002.91 1002.67 1003.15 1003.73 1002.67 1002.70 1002.95 1003.39 1004.17 1004.85 1005.50 1006.35 1007.17 1007.78 1008.36 1009.02 1009.79 1010.37 1010.86 1011.38 1011.86 1012.34 1012.57 1012.88 1013.21 1013.43 1013.68 1013.78 1013.91 1014.11 1014.31 1014.58 1014.58 1014.51 1014.56 1014.73 1014.92 1014.99 1015.11 1015.28
Thickness
5832 5831 5830 5816 5780 5778 5759 5759 5764 5781 5809 5827 5829 5814 5801 5800 5786 5760 5802 5798 5792 5786 5784 5783 5783 5780 5778 5777 5776 5776 5774 5771 5771 5771 5769 5769 5767 5763 5760 5757 5756 5755 5754 5751 5748 5745 5744 5738 5737
5837 5835 5825 5810 5775 5750 5754 5752 5752 5786 5821 5826 5821 5818 5804 5783 5807 5800 5793 5797 5794 5788 5786 5782 5782 5780 5777 5776 5776 5775 5776 5774 5772 5770 5769 5768 5766 5763 5760 5758 5755 5753 5754 5752 5748 5748 5742 5740 5735
5832 5835 5803 5788 5779 5761 5754 5757 5767 5794 5804 5823 5815 5823 5808 5788 5803 5800 5801 5798 5794 5788 5785 5783 5782 5780 5777 5775 5775 5775 5775 5774 5772 5770 5768 5766 5765 5764 5761 5759 5755 5755 5754 5751 5749 5748 5743 5741 5735
5829 5822 5805 5777 5775 5783 5772 5760 5775 5791 5812 5830 5820 5795 5809 5817 5805 5805 5806 5799 5794 5787 5783 5782 5782 5780 5775 5774 5775 5774 5773 5772 5771 5769 5767 5764 5765 5765 5762 5758 5756 5757 5756 5751 5751 5748 5746 5741 5737
5824 5800 5776 5771 5785 5793 5792 5795 5789 5796 5805 5806 5817 5791 5792 5806 5813 5809 5805 5798 5791 5786 5781 5782 5781 5779 5776 5774 5775 5774 5773 5772 5771 5768 5766 5766 5765 5764 5761 5758 5757 5757 5755 5754 5752 5750 5747 5743 5738
5800 5802 5766 5760 5778 5802 5808 5813 5814 5812 5809 5809 5809 5797 5789 5808 5805 5803 5804 5796 5791 5786 5781 5781 5780 5777 5777 5773 5773 5774 5774 5774 5772 5769 5767 5765 5764 5762 5759 5757 5757 5757 5757 5755 5752 5749 5747 5744 5738
5801 5789 5768 5768 5776 5792 5799 5826 5810 5802 5797 5796 5799 5783 5790 5799 5810 5808 5801 5797 5790 5786 5780 5780 5781 5777 5777 5773 5773 5774 5774 5773 5772 5769 5765 5764 5764 5762 5759 5757 5756 5757 5757 5754 5753 5749 5746 5745 5739
5819 5791 5767 5752 5752 5778 5811 5817 5822 5808 5795 5813 5808 5789 5777 5798 5808 5804 5798 5792 5789 5785 5779 5778 5780 5779 5776 5774 5774 5776 5776 5773 5771 5767 5764 5765 5764 5763 5760 5757 5756 5756 5758 5755 5754 5749 5745 5744 5739
5841 5775 5758 5760 5762 5789 5814 5804 5814 5809 5803 5805 5806 5813 5807 5808 5808 5798 5791 5789 5786 5783 5782 5781 5781 5780 5778 5776 5778 5778 5775 5772 5770 5768 5766 5765 5764 5764 5760 5760 5758 5757 5760 5757 5756 5752 5747 5745 5743
5810 5779 5776 5792 5791 5799 5810 5806 5800 5796 5790 5786 5794 5808 5811 5807 5799 5792 5785 5781 5780 5780 5782 5784 5780 5780 5780 5779 5779 5778 5775 5772 5770 5768 5766 5766 5768 5767 5764 5763 5761 5761 5763 5763 5760 5756 5751 5747 5745
5819 5788 5806 5803 5815 5818 5812 5805 5811 5786 5770 5772 5779 5789 5803 5801 5797 5792 5788 5785 5784 5787 5785 5776 5778 5774 5778 5781 5780 5777 5774 5772 5771 5769 5769 5770 5770 5770 5768 5766 5766 5764 5764 5765 5764 5761 5757 5750 5745
5804 5820 5817 5816 5816 5814 5803 5807 5798 5793 5793 5799 5798 5803 5802 5795 5793 5792 5789 5787 5785 5786 5783 5777 5777 5776 5781 5781 5779 5776 5774 5772 5772 5773 5773 5772 5774 5775 5776 5769 5769 5768 5767 5765 5764 5762 5761 5758 5751
5814 5817 5825 5824 5819 5817 5815 5801 5796 5794 5802 5809 5805 5800 5795 5795 5791 5795 5796 5793 5790 5788 5785 5784 5782 5781 5782 5781 5779 5776 5774 5773 5775 5776 5775 5775 5778 5778 5775 5774 5772 5770 5770 5771 5768 5766 5762 5759 5758
5824 5822 5821 5823 5816 5818 5806 5800 5802 5797 5804 5803 5804 5802 5801 5800 5798 5796 5796 5791 5788 5789 5787 5785 5783 5781 5781 5778 5778 5776 5774 5774 5775 5777 5779 5778 5779 5780 5778 5778 5777 5777 5774 5773 5769 5768 5768 5764 5760
5827 5805 5812 5812 5815 5812 5811 5785 5787 5803 5808 5803 5807 5808 5808 5804 5803 5796 5796 5795 5793 5789 5789 5786 5783 5780 5778 5776 5777 5776 5775 5776 5776 5779 5780 5782 5780 5782 5780 5782 5780 5778 5773 5770 5771 5768 5771 5771 5767
5805 5807 5779 5806 5813 5817 5804 5765 5791 5804 5800 5801 5805 5812 5809 5803 5805 5803 5799 5797 5795 5791 5787 5787 5786 5780 5777 5778 5776 5775 5777 5777 5776 5781 5779 5784 5782 5779 5779 5782 5781 5778 5775 5766 5772 5765 5767 5768 5767
5792 5766 5780 5794 5812 5808 5798 5778 5792 5803 5798 5796 5804 5809 5803 5802 5802 5805 5804 5800 5798 5795 5789 5786 5783 5780 5777 5778 5776 5775 5777 5779 5777 5778 5777 5782 5782 5779 5781 5780 5777 5774 5771 5770 5774 5765 5763 5767 5765
5777 5783 5791 5787 5802 5811 5796 5790 5792 5797 5795 5798 5799 5804 5802 5800 5802 5807 5805 5803 5800 5797 5792 5790 5784 5781 5780 5777 5775 5774 5774 5776 5777 5777 5778 5783 5784 5781 5780 5778 5774 5772 5767 5765 5770 5771 5772 5772 5768
5807 5796 5788 5802 5819 5804 5790 5783 5772 5775 5779 5784 5796 5796 5801 5797 5805 5806 5806 5804 5799 5795 5791 5787 5783 5781 5780 5775 5772 5770 5768 5773 5775 5778 5781 5783 5787 5788 5782 5778 5774 5773 5769 5766 5770 5772 5774 5771 5766
5808 5790 5787 5801 5822 5804 5790 5770 5782 5795 5766 5760 5772 5793 5801 5804 5801 5804 5805 5803 5799 5796 5792 5786 5783 5781 5780 5778 5777 5775 5774 5775 5777 5782 5782 5783 5788 5791 5787 5780 5775 5775 5776 5772 5772 5771 5771 5766 5761
5802 5789 5792 5796 5809 5807 5791 5764 5771 5774 5780 5777 5789 5789 5805 5806 5800 5801 5804 5802 5797 5794 5789 5787 5785 5782 5781 5780 5778 5776 5777 5777 5776 5778 5782 5783 5784 5787 5785 5785 5781 5780 5780 5773 5771 5769 5770 5763 5763
5777 5825 5820 5811 5785 5742 5769 5734 5770 5767 5767 5768 5789 5786 5801 5813 5812 5809 5805 5803 5799 5795 5794 5790 5788 5782 5783 5781 5777 5775 5771 5770 5777 5782 5783 5784 5782 5781 5782 5780 5778 5779 5780 5776 5776 5773 5768 5765 5758
5798 5825 5810 5794 5769 5757 5760 5747 5774 5778 5768 5773 5790 5799 5814 5815 5819 5814 5814 5809 5806 5801 5793 5790 5787 5784 5784 5782 5780 5777 5774 5777 5782 5783 5781 5780 5780 5780 5777 5777 5775 5776 5779 5778 5779 5776 5771 5769 5760
5829 5815 5800 5770 5754 5717 5760 5746 5760 5761 5778 5791 5823 5819 5817 5818 5823 5820 5821 5815 5806 5802 5796 5789 5786 5785 5783 5782 5781 5779 5778 5777 5777 5778 5777 5776 5777 5777 5778 5779 5779 5779 5779 5778 5776 5778 5775 5769 5768
5817 5793 5735 5728 5717 5723 5766 5755 5774 5799 5810 5808 5814 5820 5826 5825 5825 5821 5815 5809 5806 5801 5796 5791 5787 5782 5783 5782 5781 5780 5779 5777 5775 5776 5776 5774 5773 5776 5779 5783 5784 5780 5779 5779 5777 5774 5774 5773 5772
5800 5788 5750 5716 5710 5731 5764 5745 5779 5819 5817 5818 5821 5835 5833 5827 5831 5825 5820 5816 5811 5808 5797 5794 5788 5785 5783 5781 5780 5780 5779 5777 5777 5777 5777 5776 5775 5779 5785 5786 5786 5784 5779 5779 5781 5775 5775 5774 5774
5797 5777 5809 5779 5791 5763 5764 5788 5793 5796 5784 5829 5838 5841 5834 5826 5828 5823 5822 5817 5814 5806 5800 5798 5791 5787 5784 5783 5781 5779 5779 5778 5777 5777 5777 5777 5778 5782 5785 5787 5787 5783 5781 5780 5780 5778 5776 5775 5774
5813 5822 5772 5770 5748 5750 5761 5757 5736 5781 5800 5821 5829 5828 5832 5831 5825 5822 5820 5817 5815 5811 5808 5802 5796 5790 5788 5786 5784 5781 5780 5779 5778 5776 5775 5777 5779 5782 5779 5781 5782 5780 5782 5781 5781 5778 5777 5775 5774
5805 5792 5801 5789 5777 5749 5744 5764 5813 5805 5819 5821 5822 5826 5827 5828 5826 5823 5818 5817 5816 5815 5809 5804 5798 5793 5789 5788 5786 5782 5781 5781 5779 5777 5775 5775 5777 5778 5778 5775 5775 5778 5780 5782 5780 5776 5777 5775 5774
5829 5813 5802 5768 5756 5776 5768 5776 5833 5809 5818 5810 5806 5826 5830 5829 5825 5822 5821 5820 5815 5810 5807 5805 5802 5797 5793 5790 5788 5785 5781 5783 5780 5777 5777 5777 5776 5777 5777 5778 5775 5776 5778 5779 5777 5776 5778 5776 5775